owner,sensor,date,latitude,longitude,vertical_datum,mass_concentration_of_oxygen_in_sea_water,qcFlag 
SCCF RECON,ioos:station:SCCF:18:1,2017-05-01T00:00:00Z,26.6955,-81.8138,1.779,5.5,1111122 
SCCF RECON,ioos:station:SCCF:18:1,2017-05-01T01:00:00Z,26.6955,-81.8138,1.74,6.05,1111122 
SCCF RECON,ioos:station:SCCF:18:1,2017-05-01T02:00:00Z,26.6955,-81.8138,1.675,5.85,1111122 
SCCF RECON,ioos:station:SCCF:18:1,2017-05-01T03:00:00Z,26.6955,-81.8138,1.607,5.49,1111122 
SCCF RECON,ioos:station:SCCF:18:1,2017-05-01T04:00:00Z,26.6955,-81.8138,1.54,5.42,1111122 
SCCF RECON,ioos:station:SCCF:18:1,2017-05-01T05:00:00Z,26.6955,-81.8138,1.478,5.27,1111122 
SCCF RECON,ioos:station:SCCF:18:1,2017-05-01T06:00:00Z,26.6955,-81.8138,1.411,5.22,1111122 
SCCF RECON,ioos:station:SCCF:18:1,2017-05-01T07:00:00Z,26.6955,-81.8138,1.351,5.24,1111122 
SCCF RECON,ioos:station:SCCF:18:1,2017-05-01T08:00:00Z,26.6955,-81.8138,1.31,5.11,1111122 
SCCF RECON,ioos:station:SCCF:18:1,2017-05-01T09:00:00Z,26.6955,-81.8138,1.31,4.52,1111122 
SCCF RECON,ioos:station:SCCF:18:1,2017-05-01T10:00:00Z,26.6955,-81.8138,1.351,4.75,1111122 
SCCF RECON,ioos:station:SCCF:18:1,2017-05-01T11:00:00Z,26.6955,-81.8138,1.43,4.11,1111122 
SCCF RECON,ioos:station:SCCF:18:1,2017-05-01T12:00:00Z,26.6955,-81.8138,1.5,4.23,1111122 
SCCF RECON,ioos:station:SCCF:18:1,2017-05-01T13:00:00Z,26.6955,-81.8138,1.54,4.37,1111122 
SCCF RECON,ioos:station:SCCF:18:1,2017-05-01T14:00:00Z,26.6955,-81.8138,1.59,4.21,1111122 
SCCF RECON,ioos:station:SCCF:18:1,2017-05-01T15:00:00Z,26.6955,-81.8138,1.627,4.39,1111122 
SCCF RECON,ioos:station:SCCF:18:1,2017-05-01T16:00:00Z,26.6955,-81.8138,1.621,4.59,1111122 
SCCF RECON,ioos:station:SCCF:18:1,2017-05-01T17:00:00Z,26.6955,-81.8138,1.62,5.26,1111122 
SCCF RECON,ioos:station:SCCF:18:1,2017-05-01T18:00:00Z,26.6955,-81.8138,1.616,4.83,1111122 
SCCF RECON,ioos:station:SCCF:18:1,2017-05-01T19:00:00Z,26.6955,-81.8138,1.633,5.3,1111122 
SCCF RECON,ioos:station:SCCF:18:1,2017-05-01T20:00:00Z,26.6955,-81.8138,1.671,5.22,1111122 
SCCF RECON,ioos:station:SCCF:18:1,2017-05-01T21:00:00Z,26.6955,-81.8138,1.71,5.8,1111122 
SCCF RECON,ioos:station:SCCF:18:1,2017-05-01T22:00:00Z,26.6955,-81.8138,1.743,5.62,1111122 
SCCF RECON,ioos:station:SCCF:18:1,2017-05-01T23:00:00Z,26.6955,-81.8138,1.769,5.96,1111122 
SCCF RECON,ioos:station:SCCF:18:1,2017-05-02T00:00:00Z,26.6955,-81.8138,1.77,5.26,1111122 
SCCF RECON,ioos:station:SCCF:18:1,2017-05-02T01:00:00Z,26.6955,-81.8138,1.73,6.17,1111122 
SCCF RECON,ioos:station:SCCF:18:1,2017-05-02T02:00:00Z,26.6955,-81.8138,1.667,6.11,1111122 
SCCF RECON,ioos:station:SCCF:18:1,2017-05-02T03:00:00Z,26.6955,-81.8138,1.598,5.92,1111122 
SCCF RECON,ioos:station:SCCF:18:1,2017-05-02T04:00:00Z,26.6955,-81.8138,1.55,5.61,1111122 
SCCF RECON,ioos:station:SCCF:18:1,2017-05-02T05:00:00Z,26.6955,-81.8138,1.5,5.38,1111122 
SCCF RECON,ioos:station:SCCF:18:1,2017-05-02T06:00:00Z,26.6955,-81.8138,1.43,5.34,1111122 
SCCF RECON,ioos:station:SCCF:18:1,2017-05-02T07:00:00Z,26.6955,-81.8138,1.363,5.22,1111122 
SCCF RECON,ioos:station:SCCF:18:1,2017-05-02T08:00:00Z,26.6955,-81.8138,1.317,5.12,1111122 
SCCF RECON,ioos:station:SCCF:18:1,2017-05-02T09:00:00Z,26.6955,-81.8138,1.299,4.78,1111122 
SCCF RECON,ioos:station:SCCF:18:1,2017-05-02T10:00:00Z,26.6955,-81.8138,1.315,4.44,1111122 
SCCF RECON,ioos:station:SCCF:18:1,2017-05-02T11:00:00Z,26.6955,-81.8138,1.38,4.24,1111122 
SCCF RECON,ioos:station:SCCF:18:1,2017-05-02T12:00:00Z,26.6955,-81.8138,1.46,4.1,1111122 
SCCF RECON,ioos:station:SCCF:18:1,2017-05-02T13:00:00Z,26.6955,-81.8138,1.52,3.8,1111122 
SCCF RECON,ioos:station:SCCF:18:1,2017-05-02T14:00:00Z,26.6955,-81.8138,1.561,3.85,1111122 
SCCF RECON,ioos:station:SCCF:18:1,2017-05-02T15:00:00Z,26.6955,-81.8138,1.595,4.12,1111122 
SCCF RECON,ioos:station:SCCF:18:1,2017-05-02T16:00:00Z,26.6955,-81.8138,1.618,4.23,1111122 
SCCF RECON,ioos:station:SCCF:18:1,2017-05-02T17:00:00Z,26.6955,-81.8138,1.618,3.92,1111122 
SCCF RECON,ioos:station:SCCF:18:1,2017-05-02T18:00:00Z,26.6955,-81.8138,1.597,4.84,1111122 
SCCF RECON,ioos:station:SCCF:18:1,2017-05-02T19:00:00Z,26.6955,-81.8138,1.558,4.99,1111122 
SCCF RECON,ioos:station:SCCF:18:1,2017-05-02T20:00:00Z,26.6955,-81.8138,1.538,4.94,1111122 
SCCF RECON,ioos:station:SCCF:18:1,2017-05-02T21:00:00Z,26.6955,-81.8138,1.555,5.65,1111122 
SCCF RECON,ioos:station:SCCF:18:1,2017-05-02T22:00:00Z,26.6955,-81.8138,1.6,5.35,1111122 
SCCF RECON,ioos:station:SCCF:18:1,2017-05-02T23:00:00Z,26.6955,-81.8138,1.649,5.16,1111122 
SCCF RECON,ioos:station:SCCF:18:1,2017-05-03T00:00:00Z,26.6955,-81.8138,1.663,5.23,1111122 
SCCF RECON,ioos:station:SCCF:18:1,2017-05-03T01:00:00Z,26.6955,-81.8138,1.67,6.02,1111122 
SCCF RECON,ioos:station:SCCF:18:1,2017-05-03T02:00:00Z,26.6955,-81.8138,1.678,5.34,1111122 
SCCF RECON,ioos:station:SCCF:18:1,2017-05-03T03:00:00Z,26.6955,-81.8138,1.64,6.14,1111122 
SCCF RECON,ioos:station:SCCF:18:1,2017-05-03T04:00:00Z,26.6955,-81.8138,1.575,5.98,1111122 
SCCF RECON,ioos:station:SCCF:18:1,2017-05-03T05:00:00Z,26.6955,-81.8138,1.51,5.69,1111122 
SCCF RECON,ioos:station:SCCF:18:1,2017-05-03T06:00:00Z,26.6955,-81.8138,1.45,5.37,1111122 
SCCF RECON,ioos:station:SCCF:18:1,2017-05-03T07:00:00Z,26.6955,-81.8138,1.391,5.24,1111122 
SCCF RECON,ioos:station:SCCF:18:1,2017-05-03T08:00:00Z,26.6955,-81.8138,1.332,5.19,1111122 
SCCF RECON,ioos:station:SCCF:18:1,2017-05-03T09:00:00Z,26.6955,-81.8138,1.28,5.06,1111122 
SCCF RECON,ioos:station:SCCF:18:1,2017-05-03T10:00:00Z,26.6955,-81.8138,1.25,4.87,1111122 
SCCF RECON,ioos:station:SCCF:18:1,2017-05-03T11:00:00Z,26.6955,-81.8138,1.259,4.61,1111122 
SCCF RECON,ioos:station:SCCF:18:1,2017-05-03T12:00:00Z,26.6955,-81.8138,1.34,4.19,1111122 
SCCF RECON,ioos:station:SCCF:18:1,2017-05-03T13:00:00Z,26.6955,-81.8138,1.408,4.14,1111122 
SCCF RECON,ioos:station:SCCF:18:1,2017-05-03T14:00:00Z,26.6955,-81.8138,1.458,4.74,1111122 
SCCF RECON,ioos:station:SCCF:18:1,2017-05-03T15:00:00Z,26.6955,-81.8138,1.503,4.23,1111122 
SCCF RECON,ioos:station:SCCF:18:1,2017-05-03T16:00:00Z,26.6955,-81.8138,1.536,4.94,1111122 
SCCF RECON,ioos:station:SCCF:18:1,2017-05-03T17:00:00Z,26.6955,-81.8138,1.538,4.75,1111122 
SCCF RECON,ioos:station:SCCF:18:1,2017-05-03T18:00:00Z,26.6955,-81.8138,1.514,5.38,1111122 
SCCF RECON,ioos:station:SCCF:18:1,2017-05-03T19:00:00Z,26.6955,-81.8138,1.46,5.88,1111122 
SCCF RECON,ioos:station:SCCF:18:1,2017-05-03T20:00:00Z,26.6955,-81.8138,1.446,5.13,1111122 
SCCF RECON,ioos:station:SCCF:18:1,2017-05-03T21:00:00Z,26.6955,-81.8138,1.403,5.94,1111122 
SCCF RECON,ioos:station:SCCF:18:1,2017-05-03T22:00:00Z,26.6955,-81.8138,1.367,5.78,1111122 
SCCF RECON,ioos:station:SCCF:18:1,2017-05-03T23:00:00Z,26.6955,-81.8138,1.42,5.57,1111122 
SCCF RECON,ioos:station:SCCF:18:1,2017-05-04T00:00:00Z,26.6955,-81.8138,1.51,4.68,1111122 
SCCF RECON,ioos:station:SCCF:18:1,2017-05-04T01:00:00Z,26.6955,-81.8138,1.556,5.79,1111122 
SCCF RECON,ioos:station:SCCF:18:1,2017-05-04T02:00:00Z,26.6955,-81.8138,1.562,5.45,1111122 
SCCF RECON,ioos:station:SCCF:18:1,2017-05-04T03:00:00Z,26.6955,-81.8138,1.592,4.86,1111122 
SCCF RECON,ioos:station:SCCF:18:1,2017-05-04T04:00:00Z,26.6955,-81.8138,1.62,4.83,1111122 
SCCF RECON,ioos:station:SCCF:18:1,2017-05-04T05:00:00Z,26.6955,-81.8138,1.589,5.71,1111122 
SCCF RECON,ioos:station:SCCF:18:1,2017-05-04T06:00:00Z,26.6955,-81.8138,1.516,5.59,1111122 
SCCF RECON,ioos:station:SCCF:18:1,2017-05-04T07:00:00Z,26.6955,-81.8138,1.438,5.36,1111122 
SCCF RECON,ioos:station:SCCF:18:1,2017-05-04T08:00:00Z,26.6955,-81.8138,1.39,5.22,1111122 
SCCF RECON,ioos:station:SCCF:18:1,2017-05-04T09:00:00Z,26.6955,-81.8138,1.338,5.27,1111122 
SCCF RECON,ioos:station:SCCF:18:1,2017-05-04T10:00:00Z,26.6955,-81.8138,1.289,5.26,1111122 
SCCF RECON,ioos:station:SCCF:18:1,2017-05-04T11:00:00Z,26.6955,-81.8138,1.26,5.21,1111122 
SCCF RECON,ioos:station:SCCF:18:1,2017-05-04T12:00:00Z,26.6955,-81.8138,1.265,4.98,1111122 
SCCF RECON,ioos:station:SCCF:18:1,2017-05-04T13:00:00Z,26.6955,-81.8138,1.331,4.49,1111122 
SCCF RECON,ioos:station:SCCF:18:1,2017-05-04T14:00:00Z,26.6955,-81.8138,1.42,4.82,1111122 
SCCF RECON,ioos:station:SCCF:18:1,2017-05-04T15:00:00Z,26.6955,-81.8138,1.49,4.52,1111122 
SCCF RECON,ioos:station:SCCF:18:1,2017-05-04T16:00:00Z,26.6955,-81.8138,1.531,4.4,1111122 
SCCF RECON,ioos:station:SCCF:18:1,2017-05-04T17:00:00Z,26.6955,-81.8138,1.591,5.3,1111122 
SCCF RECON,ioos:station:SCCF:18:1,2017-05-04T18:00:00Z,26.6955,-81.8138,1.67,5.79,1111122 
SCCF RECON,ioos:station:SCCF:18:1,2017-05-04T19:00:00Z,26.6955,-81.8138,1.71,5.59,1111122 
SCCF RECON,ioos:station:SCCF:18:1,2017-05-04T20:00:00Z,26.6955,-81.8138,1.657,6.18,1111122 
SCCF RECON,ioos:station:SCCF:18:1,2017-05-04T21:00:00Z,26.6955,-81.8138,1.589,6.02,1111122 
SCCF RECON,ioos:station:SCCF:18:1,2017-05-04T22:00:00Z,26.6955,-81.8138,1.542,6.38,1111122 
SCCF RECON,ioos:station:SCCF:18:1,2017-05-04T23:00:00Z,26.6955,-81.8138,1.511,5.48,1111122 
SCCF RECON,ioos:station:SCCF:18:1,2017-05-05T00:00:00Z,26.6955,-81.8138,1.485,5.62,1111122 
SCCF RECON,ioos:station:SCCF:18:1,2017-05-05T01:00:00Z,26.6955,-81.8138,1.515,4.86,1111122 
SCCF RECON,ioos:station:SCCF:18:1,2017-05-05T02:00:00Z,26.6955,-81.8138,1.577,5.33,1111122 
SCCF RECON,ioos:station:SCCF:18:1,2017-05-05T03:00:00Z,26.6955,-81.8138,1.615,5.26,1111122 
SCCF RECON,ioos:station:SCCF:18:1,2017-05-05T04:00:00Z,26.6955,-81.8138,1.61,5.05,1111122 
SCCF RECON,ioos:station:SCCF:18:1,2017-05-05T05:00:00Z,26.6955,-81.8138,1.59,4.78,1111122 
SCCF RECON,ioos:station:SCCF:18:1,2017-05-05T06:00:00Z,26.6955,-81.8138,1.55,5.42,1111122 
SCCF RECON,ioos:station:SCCF:18:1,2017-05-05T07:00:00Z,26.6955,-81.8138,1.52,5.43,1111122 
SCCF RECON,ioos:station:SCCF:18:1,2017-05-05T08:00:00Z,26.6955,-81.8138,1.535,4.5,1111122 
SCCF RECON,ioos:station:SCCF:18:1,2017-05-05T09:00:00Z,26.6955,-81.8138,1.51,4.84,1111122 
SCCF RECON,ioos:station:SCCF:18:1,2017-05-05T10:00:00Z,26.6955,-81.8138,1.427,5.44,1111122 
SCCF RECON,ioos:station:SCCF:18:1,2017-05-05T11:00:00Z,26.6955,-81.8138,1.359,5.2,1111122 
SCCF RECON,ioos:station:SCCF:18:1,2017-05-05T12:00:00Z,26.6955,-81.8138,1.358,4.2,1111122 
SCCF RECON,ioos:station:SCCF:18:1,2017-05-05T13:00:00Z,26.6955,-81.8138,1.399,4.62,1111122 
SCCF RECON,ioos:station:SCCF:18:1,2017-05-05T14:00:00Z,26.6955,-81.8138,1.451,4.21,1111122 
SCCF RECON,ioos:station:SCCF:18:1,2017-05-05T15:00:00Z,26.6955,-81.8138,1.522,4.47,1111122 
SCCF RECON,ioos:station:SCCF:18:1,2017-05-05T16:00:00Z,26.6955,-81.8138,1.58,4.73,1111122 
SCCF RECON,ioos:station:SCCF:18:1,2017-05-05T17:00:00Z,26.6955,-81.8138,1.626,4.67,1111122 
SCCF RECON,ioos:station:SCCF:18:1,2017-05-05T18:00:00Z,26.6955,-81.8138,1.649,4.63,1111122 
SCCF RECON,ioos:station:SCCF:18:1,2017-05-05T19:00:00Z,26.6955,-81.8138,1.6,5.29,1111122 
SCCF RECON,ioos:station:SCCF:18:1,2017-05-05T20:00:00Z,26.6955,-81.8138,1.539,5.65,1111122 
SCCF RECON,ioos:station:SCCF:18:1,2017-05-05T21:00:00Z,26.6955,-81.8138,1.492,5.22,1111122 
SCCF RECON,ioos:station:SCCF:18:1,2017-05-05T22:00:00Z,26.6955,-81.8138,1.458,5.1,1111122 
SCCF RECON,ioos:station:SCCF:18:1,2017-05-05T23:00:00Z,26.6955,-81.8138,1.416,5.09,1111122 
SCCF RECON,ioos:station:SCCF:18:1,2017-05-06T00:00:00Z,26.6955,-81.8138,1.366,5.18,1111122 
SCCF RECON,ioos:station:SCCF:18:1,2017-05-06T01:00:00Z,26.6955,-81.8138,1.34,5.53,1111122 
SCCF RECON,ioos:station:SCCF:18:1,2017-05-06T02:00:00Z,26.6955,-81.8138,1.359,5.14,1111122 
SCCF RECON,ioos:station:SCCF:18:1,2017-05-06T03:00:00Z,26.6955,-81.8138,1.425,4.5,1111122 
SCCF RECON,ioos:station:SCCF:18:1,2017-05-06T04:00:00Z,26.6955,-81.8138,1.498,4.04,1111122 
SCCF RECON,ioos:station:SCCF:18:1,2017-05-06T05:00:00Z,26.6955,-81.8138,1.55,4.25,1111122 
SCCF RECON,ioos:station:SCCF:18:1,2017-05-06T06:00:00Z,26.6955,-81.8138,1.577,4.46,1111122 
SCCF RECON,ioos:station:SCCF:18:1,2017-05-06T07:00:00Z,26.6955,-81.8138,1.61,4.7,1111122 
SCCF RECON,ioos:station:SCCF:18:1,2017-05-06T08:00:00Z,26.6955,-81.8138,1.556,5.06,1111122 
SCCF RECON,ioos:station:SCCF:18:1,2017-05-06T09:00:00Z,26.6955,-81.8138,1.48,4.99,1111122 
SCCF RECON,ioos:station:SCCF:18:1,2017-05-06T10:00:00Z,26.6955,-81.8138,1.419,4.99,1111122 
SCCF RECON,ioos:station:SCCF:18:1,2017-05-06T11:00:00Z,26.6955,-81.8138,1.386,4.96,1111122 
SCCF RECON,ioos:station:SCCF:18:1,2017-05-06T12:00:00Z,26.6955,-81.8138,1.344,4.93,1111122 
SCCF RECON,ioos:station:SCCF:18:1,2017-05-06T13:00:00Z,26.6955,-81.8138,1.29,4.92,1111122 
SCCF RECON,ioos:station:SCCF:18:1,2017-05-06T14:00:00Z,26.6955,-81.8138,1.253,4.95,1111122 
SCCF RECON,ioos:station:SCCF:18:1,2017-05-06T15:00:00Z,26.6955,-81.8138,1.283,4.58,1111122 
SCCF RECON,ioos:station:SCCF:18:1,2017-05-06T16:00:00Z,26.6955,-81.8138,1.361,4.52,1111122 
SCCF RECON,ioos:station:SCCF:18:1,2017-05-06T17:00:00Z,26.6955,-81.8138,1.449,5.29,1111122 
SCCF RECON,ioos:station:SCCF:18:1,2017-05-06T18:00:00Z,26.6955,-81.8138,1.489,4.62,1111122 
SCCF RECON,ioos:station:SCCF:18:1,2017-05-06T19:00:00Z,26.6955,-81.8138,1.493,4.66,1111122 
SCCF RECON,ioos:station:SCCF:18:1,2017-05-06T20:00:00Z,26.6955,-81.8138,1.438,5.88,1111122 
SCCF RECON,ioos:station:SCCF:18:1,2017-05-06T21:00:00Z,26.6955,-81.8138,1.384,5.5,1111122 
SCCF RECON,ioos:station:SCCF:18:1,2017-05-06T22:00:00Z,26.6955,-81.8138,1.34,5.11,1111122 
SCCF RECON,ioos:station:SCCF:18:1,2017-05-06T23:00:00Z,26.6955,-81.8138,1.293,5.82,1111122 
SCCF RECON,ioos:station:SCCF:18:1,2017-05-07T00:00:00Z,26.6955,-81.8138,1.254,6.14,1111122 
SCCF RECON,ioos:station:SCCF:18:1,2017-05-07T01:00:00Z,26.6955,-81.8138,1.229,6.09,1111122 
SCCF RECON,ioos:station:SCCF:18:1,2017-05-07T02:00:00Z,26.6955,-81.8138,1.22,6.06,1111122 
SCCF RECON,ioos:station:SCCF:18:1,2017-05-07T03:00:00Z,26.6955,-81.8138,1.28,5.27,1111122 
SCCF RECON,ioos:station:SCCF:18:1,2017-05-07T04:00:00Z,26.6955,-81.8138,1.35,5.11,1111122 
SCCF RECON,ioos:station:SCCF:18:1,2017-05-07T05:00:00Z,26.6955,-81.8138,1.405,5.01,1111122 
SCCF RECON,ioos:station:SCCF:18:1,2017-05-07T06:00:00Z,26.6955,-81.8138,1.44,4.77,1111122 
SCCF RECON,ioos:station:SCCF:18:1,2017-05-07T07:00:00Z,26.6955,-81.8138,1.48,4.42,1111122 
SCCF RECON,ioos:station:SCCF:18:1,2017-05-07T08:00:00Z,26.6955,-81.8138,1.49,5.01,1111122 
SCCF RECON,ioos:station:SCCF:18:1,2017-05-07T09:00:00Z,26.6955,-81.8138,1.438,5.3,1111122 
SCCF RECON,ioos:station:SCCF:18:1,2017-05-07T10:00:00Z,26.6955,-81.8138,1.38,5.48,1111122 
SCCF RECON,ioos:station:SCCF:18:1,2017-05-07T11:00:00Z,26.6955,-81.8138,1.332,5.3,1111122 
SCCF RECON,ioos:station:SCCF:18:1,2017-05-07T12:00:00Z,26.6955,-81.8138,1.303,5.31,1111122 
SCCF RECON,ioos:station:SCCF:18:1,2017-05-07T13:00:00Z,26.6955,-81.8138,1.27,5.34,1111122 
SCCF RECON,ioos:station:SCCF:18:1,2017-05-07T14:00:00Z,26.6955,-81.8138,1.27,5.19,1111122 
SCCF RECON,ioos:station:SCCF:18:1,2017-05-07T15:00:00Z,26.6955,-81.8138,1.34,5.36,1111122 
SCCF RECON,ioos:station:SCCF:18:1,2017-05-07T16:00:00Z,26.6955,-81.8138,1.421,5.24,1111122 
SCCF RECON,ioos:station:SCCF:18:1,2017-05-07T17:00:00Z,26.6955,-81.8138,1.487,5.14,1111122 
SCCF RECON,ioos:station:SCCF:18:1,2017-05-07T18:00:00Z,26.6955,-81.8138,1.529,5.49,1111122 
SCCF RECON,ioos:station:SCCF:18:1,2017-05-07T19:00:00Z,26.6955,-81.8138,1.568,5.61,1111122 
SCCF RECON,ioos:station:SCCF:18:1,2017-05-07T20:00:00Z,26.6955,-81.8138,1.563,6.26,1111122 
SCCF RECON,ioos:station:SCCF:18:1,2017-05-07T21:00:00Z,26.6955,-81.8138,1.491,6.98,1111122 
SCCF RECON,ioos:station:SCCF:18:1,2017-05-07T22:00:00Z,26.6955,-81.8138,1.412,7.15,1111122 
SCCF RECON,ioos:station:SCCF:18:1,2017-05-07T23:00:00Z,26.6955,-81.8138,1.36,6.42,1111122 
SCCF RECON,ioos:station:SCCF:18:1,2017-05-08T00:00:00Z,26.6955,-81.8138,1.33,6.79,1111122 
SCCF RECON,ioos:station:SCCF:18:1,2017-05-08T01:00:00Z,26.6955,-81.8138,1.278,6.99,1111122 
SCCF RECON,ioos:station:SCCF:18:1,2017-05-08T02:00:00Z,26.6955,-81.8138,1.23,6.73,1111122 
SCCF RECON,ioos:station:SCCF:18:1,2017-05-08T03:00:00Z,26.6955,-81.8138,1.21,6.57,1111122 
SCCF RECON,ioos:station:SCCF:18:1,2017-05-08T04:00:00Z,26.6955,-81.8138,1.245,5.86,1111122 
SCCF RECON,ioos:station:SCCF:18:1,2017-05-08T05:00:00Z,26.6955,-81.8138,1.31,5.42,1111122 
SCCF RECON,ioos:station:SCCF:18:1,2017-05-08T06:00:00Z,26.6955,-81.8138,1.366,5.32,1111122 
SCCF RECON,ioos:station:SCCF:18:1,2017-05-08T07:00:00Z,26.6955,-81.8138,1.393,5.03,1111122 
SCCF RECON,ioos:station:SCCF:18:1,2017-05-08T08:00:00Z,26.6955,-81.8138,1.41,5.09,1111122 
SCCF RECON,ioos:station:SCCF:18:1,2017-05-08T09:00:00Z,26.6955,-81.8138,1.4,5.48,1111122 
SCCF RECON,ioos:station:SCCF:18:1,2017-05-08T10:00:00Z,26.6955,-81.8138,1.345,5.88,1111122 
SCCF RECON,ioos:station:SCCF:18:1,2017-05-08T11:00:00Z,26.6955,-81.8138,1.296,5.69,1111122 
SCCF RECON,ioos:station:SCCF:18:1,2017-05-08T12:00:00Z,26.6955,-81.8138,1.27,5.46,1111122 
SCCF RECON,ioos:station:SCCF:18:1,2017-05-08T13:00:00Z,26.6955,-81.8138,1.24,5.53,1111122 
SCCF RECON,ioos:station:SCCF:18:1,2017-05-08T14:00:00Z,26.6955,-81.8138,1.203,5.64,1111122 
SCCF RECON,ioos:station:SCCF:18:1,2017-05-08T15:00:00Z,26.6955,-81.8138,1.233,5.0,1111122 
SCCF RECON,ioos:station:SCCF:18:1,2017-05-08T16:00:00Z,26.6955,-81.8138,1.311,5.01,1111122 
SCCF RECON,ioos:station:SCCF:18:1,2017-05-08T17:00:00Z,26.6955,-81.8138,1.4,5.37,1111122 
SCCF RECON,ioos:station:SCCF:18:1,2017-05-08T18:00:00Z,26.6955,-81.8138,1.45,5.3,1111122 
SCCF RECON,ioos:station:SCCF:18:1,2017-05-08T19:00:00Z,26.6955,-81.8138,1.505,5.19,1111122 
SCCF RECON,ioos:station:SCCF:18:1,2017-05-08T20:00:00Z,26.6955,-81.8138,1.54,5.7,1111122 
SCCF RECON,ioos:station:SCCF:18:1,2017-05-08T21:00:00Z,26.6955,-81.8138,1.51,5.74,1111122 
SCCF RECON,ioos:station:SCCF:18:1,2017-05-08T22:00:00Z,26.6955,-81.8138,1.438,6.71,1111122 
SCCF RECON,ioos:station:SCCF:18:1,2017-05-08T23:00:00Z,26.6955,-81.8138,1.37,5.91,1111122 
SCCF RECON,ioos:station:SCCF:18:1,2017-05-09T00:00:00Z,26.6955,-81.8138,1.324,5.69,1111122 
SCCF RECON,ioos:station:SCCF:18:1,2017-05-09T01:00:00Z,26.6955,-81.8138,1.28,6.17,1111122 
SCCF RECON,ioos:station:SCCF:18:1,2017-05-09T02:00:00Z,26.6955,-81.8138,1.238,6.17,1111122 
SCCF RECON,ioos:station:SCCF:18:1,2017-05-09T03:00:00Z,26.6955,-81.8138,1.2,5.87,1111122 
SCCF RECON,ioos:station:SCCF:18:1,2017-05-09T04:00:00Z,26.6955,-81.8138,1.21,5.42,1111122 
SCCF RECON,ioos:station:SCCF:18:1,2017-05-09T05:00:00Z,26.6955,-81.8138,1.274,5.11,1111122 
SCCF RECON,ioos:station:SCCF:18:1,2017-05-09T06:00:00Z,26.6955,-81.8138,1.346,4.97,1111122 
SCCF RECON,ioos:station:SCCF:18:1,2017-05-09T07:00:00Z,26.6955,-81.8138,1.39,4.64,1111122 
SCCF RECON,ioos:station:SCCF:18:1,2017-05-09T08:00:00Z,26.6955,-81.8138,1.425,4.86,1111122 
SCCF RECON,ioos:station:SCCF:18:1,2017-05-09T09:00:00Z,26.6955,-81.8138,1.446,4.78,1111122 
SCCF RECON,ioos:station:SCCF:18:1,2017-05-09T10:00:00Z,26.6955,-81.8138,1.4,5.16,1111122 
SCCF RECON,ioos:station:SCCF:18:1,2017-05-09T11:00:00Z,26.6955,-81.8138,1.349,5.21,1111122 
SCCF RECON,ioos:station:SCCF:18:1,2017-05-09T12:00:00Z,26.6955,-81.8138,1.302,4.49,1111122 
SCCF RECON,ioos:station:SCCF:18:1,2017-05-09T13:00:00Z,26.6955,-81.8138,1.28,4.8,1111122 
SCCF RECON,ioos:station:SCCF:18:1,2017-05-09T14:00:00Z,26.6955,-81.8138,1.258,5.0,1111122 
SCCF RECON,ioos:station:SCCF:18:1,2017-05-09T15:00:00Z,26.6955,-81.8138,1.259,4.85,1111122 
SCCF RECON,ioos:station:SCCF:18:1,2017-05-09T16:00:00Z,26.6955,-81.8138,1.33,4.94,1111122 
SCCF RECON,ioos:station:SCCF:18:1,2017-05-09T17:00:00Z,26.6955,-81.8138,1.42,5.09,1111122 
SCCF RECON,ioos:station:SCCF:18:1,2017-05-09T18:00:00Z,26.6955,-81.8138,1.479,4.9,1111122 
SCCF RECON,ioos:station:SCCF:18:1,2017-05-09T19:00:00Z,26.6955,-81.8138,1.523,5.29,1111122 
SCCF RECON,ioos:station:SCCF:18:1,2017-05-09T20:00:00Z,26.6955,-81.8138,1.577,5.41,1111122 
SCCF RECON,ioos:station:SCCF:18:1,2017-05-09T21:00:00Z,26.6955,-81.8138,1.578,5.41,1111122 
SCCF RECON,ioos:station:SCCF:18:1,2017-05-09T22:00:00Z,26.6955,-81.8138,1.521,6.12,1111122 
SCCF RECON,ioos:station:SCCF:18:1,2017-05-09T23:00:00Z,26.6955,-81.8138,1.44,6.16,1111122 
SCCF RECON,ioos:station:SCCF:18:1,2017-05-10T00:00:00Z,26.6955,-81.8138,1.378,5.83,1111122 
SCCF RECON,ioos:station:SCCF:18:1,2017-05-10T01:00:00Z,26.6955,-81.8138,1.33,5.45,1111122 
SCCF RECON,ioos:station:SCCF:18:1,2017-05-10T02:00:00Z,26.6955,-81.8138,1.285,5.59,1111122 
SCCF RECON,ioos:station:SCCF:18:1,2017-05-10T03:00:00Z,26.6955,-81.8138,1.238,5.64,1111122 
SCCF RECON,ioos:station:SCCF:18:1,2017-05-10T04:00:00Z,26.6955,-81.8138,1.208,5.07,1111122 
SCCF RECON,ioos:station:SCCF:18:1,2017-05-10T05:00:00Z,26.6955,-81.8138,1.245,5.17,1111122 
SCCF RECON,ioos:station:SCCF:18:1,2017-05-10T06:00:00Z,26.6955,-81.8138,1.312,4.79,1111122 
SCCF RECON,ioos:station:SCCF:18:1,2017-05-10T07:00:00Z,26.6955,-81.8138,1.38,4.57,1111122 
SCCF RECON,ioos:station:SCCF:18:1,2017-05-10T08:00:00Z,26.6955,-81.8138,1.42,4.5,1111122 
SCCF RECON,ioos:station:SCCF:18:1,2017-05-10T09:00:00Z,26.6955,-81.8138,1.45,4.56,1111122 
SCCF RECON,ioos:station:SCCF:18:1,2017-05-10T10:00:00Z,26.6955,-81.8138,1.45,4.59,1111122 
SCCF RECON,ioos:station:SCCF:18:1,2017-05-10T11:00:00Z,26.6955,-81.8138,1.4,4.99,1111122 
SCCF RECON,ioos:station:SCCF:18:1,2017-05-10T12:00:00Z,26.6955,-81.8138,1.344,4.56,1111122 
SCCF RECON,ioos:station:SCCF:18:1,2017-05-10T13:00:00Z,26.6955,-81.8138,1.317,4.2,1111122 
SCCF RECON,ioos:station:SCCF:18:1,2017-05-10T14:00:00Z,26.6955,-81.8138,1.296,4.21,1111122 
SCCF RECON,ioos:station:SCCF:18:1,2017-05-10T15:00:00Z,26.6955,-81.8138,1.273,4.73,1111122 
SCCF RECON,ioos:station:SCCF:18:1,2017-05-10T16:00:00Z,26.6955,-81.8138,1.322,5.1,1111122 
SCCF RECON,ioos:station:SCCF:18:1,2017-05-10T17:00:00Z,26.6955,-81.8138,1.403,5.13,1111122 
SCCF RECON,ioos:station:SCCF:18:1,2017-05-10T18:00:00Z,26.6955,-81.8138,1.487,4.81,1111122 
SCCF RECON,ioos:station:SCCF:18:1,2017-05-10T19:00:00Z,26.6955,-81.8138,1.538,5.14,1111122 
SCCF RECON,ioos:station:SCCF:18:1,2017-05-10T20:00:00Z,26.6955,-81.8138,1.586,5.36,1111122 
SCCF RECON,ioos:station:SCCF:18:1,2017-05-10T21:00:00Z,26.6955,-81.8138,1.61,5.15,1111122 
SCCF RECON,ioos:station:SCCF:18:1,2017-05-10T22:00:00Z,26.6955,-81.8138,1.57,5.04,1111122 
SCCF RECON,ioos:station:SCCF:18:1,2017-05-10T23:00:00Z,26.6955,-81.8138,1.499,5.89,1111122 
SCCF RECON,ioos:station:SCCF:18:1,2017-05-11T00:00:00Z,26.6955,-81.8138,1.43,5.52,1111122 
SCCF RECON,ioos:station:SCCF:18:1,2017-05-11T01:00:00Z,26.6955,-81.8138,1.38,5.55,1111122 
SCCF RECON,ioos:station:SCCF:18:1,2017-05-11T02:00:00Z,26.6955,-81.8138,1.33,5.53,1111122 
SCCF RECON,ioos:station:SCCF:18:1,2017-05-11T03:00:00Z,26.6955,-81.8138,1.28,5.69,1111122 
SCCF RECON,ioos:station:SCCF:18:1,2017-05-11T04:00:00Z,26.6955,-81.8138,1.24,5.31,1111122 
SCCF RECON,ioos:station:SCCF:18:1,2017-05-11T05:00:00Z,26.6955,-81.8138,1.246,4.61,1111122 
SCCF RECON,ioos:station:SCCF:18:1,2017-05-11T06:00:00Z,26.6955,-81.8138,1.307,4.7,1111122 
SCCF RECON,ioos:station:SCCF:18:1,2017-05-11T07:00:00Z,26.6955,-81.8138,1.38,4.63,1111122 
SCCF RECON,ioos:station:SCCF:18:1,2017-05-11T08:00:00Z,26.6955,-81.8138,1.422,4.18,1111122 
SCCF RECON,ioos:station:SCCF:18:1,2017-05-11T09:00:00Z,26.6955,-81.8138,1.458,3.92,1111122 
SCCF RECON,ioos:station:SCCF:18:1,2017-05-11T10:00:00Z,26.6955,-81.8138,1.49,4.1,1111122 
SCCF RECON,ioos:station:SCCF:18:1,2017-05-11T11:00:00Z,26.6955,-81.8138,1.478,4.27,1111122 
SCCF RECON,ioos:station:SCCF:18:1,2017-05-11T12:00:00Z,26.6955,-81.8138,1.41,4.81,1111122 
SCCF RECON,ioos:station:SCCF:18:1,2017-05-11T13:00:00Z,26.6955,-81.8138,1.35,4.22,1111122 
SCCF RECON,ioos:station:SCCF:18:1,2017-05-11T14:00:00Z,26.6955,-81.8138,1.32,3.95,1111122 
SCCF RECON,ioos:station:SCCF:18:1,2017-05-11T15:00:00Z,26.6955,-81.8138,1.302,4.71,1111122 
SCCF RECON,ioos:station:SCCF:18:1,2017-05-11T16:00:00Z,26.6955,-81.8138,1.298,4.47,1111122 
SCCF RECON,ioos:station:SCCF:18:1,2017-05-11T17:00:00Z,26.6955,-81.8138,1.37,4.91,1111122 
SCCF RECON,ioos:station:SCCF:18:1,2017-05-11T18:00:00Z,26.6955,-81.8138,1.46,5.08,1111122 
SCCF RECON,ioos:station:SCCF:18:1,2017-05-11T19:00:00Z,26.6955,-81.8138,1.545,4.85,1111122 
SCCF RECON,ioos:station:SCCF:18:1,2017-05-11T20:00:00Z,26.6955,-81.8138,1.588,5.37,1111122 